CST,Max TemperatureF,Mean TemperatureF,Min TemperatureF,Max Dew PointF,MeanDew PointF,Min DewpointF,Max Humidity, Mean Humidity, Min Humidity, Max Sea Level PressureIn, Mean Sea Level PressureIn, Min Sea Level PressureIn, Max VisibilityMiles, Mean VisibilityMiles, Min VisibilityMiles, Max Wind SpeedMPH, Mean Wind SpeedMPH, Max Gust SpeedMPH,PrecipitationIn, CloudCover, Events, WindDirDegrees
2012-11-1,58,47,35,38,30,21,71,53,35,29.99,29.92,29.87,10,10,10,16,8,21,0.00,3,,276
2012-11-2,53,44,34,36,33,30,89,69,48,30.12,30.05,29.90,10,10,10,15,7,20,0.00,0,,25
2012-11-3,44,38,31,40,37,31,93,88,82,30.22,30.16,30.11,10,10,8,21,10,24,0.19,6,Rain,65
2012-11-4,49,39,29,37,32,28,100,78,56,30.28,30.23,30.20,10,9,6,10,3,13,0.00,2,,352
2012-11-5,44,37,29,37,34,30,100,85,70,30.21,30.16,30.11,10,9,6,15,6,17,0.00,7,,79
2012-11-6,45,40,34,43,40,32,100,85,70,30.10,29.96,29.90,10,5,2,12,5,25,0.11,7,Rain,223
2012-11-7,46,44,42,45,42,41,100,93,86,30.20,30.05,29.90,9,7,4,14,6,21,0.05,8,Rain,333
2012-11-8,51,46,40,42,40,38,100,86,71,30.26,30.18,30.11,10,9,6,13,5,16,0.00,5,,175
2012-11-9,66,51,35,56,46,34,92,78,63,30.12,30.03,29.96,10,10,7,18,10,28,0.00,1,,175
2012-11-10,73,64,54,55,51,47,89,67,44,30.03,29.99,29.92,10,10,10,26,18,33,0.00,1,,187
2012-11-11,68,53,38,58,51,37,100,82,63,30.03,29.94,29.81,10,8,4,38,18,49,0.72,6,Rain,227
2012-11-12,41,35,29,37,27,20,100,74,48,30.43,30.23,30.03,10,10,8,23,12,29,0.04,3,Rain,278
2012-11-13,44,36,28,28,24,21,92,68,43,30.55,30.50,30.43,10,10,10,9,4,14,0.00,0,,270
2012-11-14,44,35,26,32,27,24,100,77,53,30.55,30.47,30.40,10,10,10,12,4,14,0.00,0,,118
2012-11-15,49,37,24,33,28,22,100,73,46,30.43,30.39,30.36,10,8,4,5,0,8,0.00,0,,145
2012-11-16,53,39,25,37,31,24,100,75,50,30.50,30.47,30.41,10,8,4,7,2,14,0.00,0,,119
2012-11-17,55,40,25,39,33,25,100,76,51,30.56,30.50,30.44,10,8,4,13,4,14,0.00,0,,101
2012-11-18,59,43,27,39,34,27,100,74,47,30.45,30.40,30.34,10,9,5,10,4,14,0.00,0,,142
2012-11-19,56,46,36,44,40,33,92,76,59,30.32,30.24,30.14,10,10,10,16,7,20,T,4,,181
2012-11-20,62,54,45,51,47,42,93,79,65,30.20,30.13,30.09,10,9,6,9,3,14,0.00,7,,252
2012-11-21,58,47,36,52,44,36,100,89,77,30.29,30.22,30.16,7,2,0,10,4,13,0.00,1,Fog,227
2012-11-22,63,54,45,52,47,40,100,80,60,30.14,30.02,29.91,10,7,3,24,15,33,0.04,3,Rain-Thunderstorm,203
2012-11-23,49,37,25,38,23,16,85,65,44,30.32,30.20,30.05,10,8,4,31,18,40,0.00,1,,298
2012-11-24,32,27,21,25,20,17,84,72,59,30.35,30.24,30.06,10,8,4,15,7,18,0.00,2,,253
2012-11-25,47,39,30,31,28,23,76,63,49,30.10,29.98,29.92,10,9,5,17,8,22,0.00,0,,265
2012-11-26,45,36,26,30,26,21,85,65,45,30.38,30.27,30.09,10,9,2,18,9,24,T,4,Snow,6
2012-11-27,36,28,20,22,18,15,84,64,44,30.47,30.38,30.34,10,10,10,13,4,15,0.00,0,,285
2012-11-28,47,35,23,27,24,19,85,65,45,30.45,30.39,30.34,10,10,7,9,5,17,0.00,0,,213
2012-11-29,53,42,31,36,31,25,85,70,54,30.33,30.21,30.11,10,10,10,20,12,25,0.00,0,,186
2012-11-30,59,49,38,41,37,33,92,70,47,30.13,30.11,30.07,10,10,10,17,9,22,0.00,0,,206